Location: Bastogne Gables
(35.1554°N, 78.9900°W)
Time: 03:47:32
(UTC+00:00)

ATLAS 2AS CENTAUR R/B - Pass Details

Date: 29 October 2020
Orbit: 939 x 1273 km, 63.7° (Epoch: 23 November)

Event Time Altitude Azimuth Distance (km) Brightness Sun altitude
Rises 23:38:53 0° 338° (NNW) 4,131 6.0 -15.9°
Reaches altitude 10° 23:42:52 10° 356° (N) 3,106 5.1 -16.7°
Maximum altitude 23:47:41 18° 37° (NE) 2,469 4.2 -17.6°
Enters shadow 23:48:39 18° 47° (NE) 2,479 4.2 -17.8°
